This is the latest recevied weather packets stored in our database for station/object AC2VK-1. If no packets are shown the sender has not sent any weather packets the latest 10 day(s).
| Time | Temp. | Humidity | Pressure | Rain* | Wind** | Luminosity | Snow |
|---|---|---|---|---|---|---|---|
| 1778006356 | 23.89° C | 53% | 1014.7 hPa | 0 mm | - | - | - |
| 1778005756 | 23.89° C | 53% | 1014.8 hPa | 0 mm | - | - | - |
| 1778005156 | 23.33° C | 53% | 1015.1 hPa | 0 mm | - | - | - |
| 1778004556 | 23.33° C | 50% | 1015.1 hPa | 0 mm | - | - | - |
| 1778003956 | 23.33° C | 51% | 1015.3 hPa | 0 mm | - | - | - |
| 1778003356 | 23.89° C | 49% | 1015.5 hPa | 0 mm | - | - | - |
| 1778002756 | 23.89° C | 49% | 1015.6 hPa | 0 mm | - | - | - |
| 1778002156 | 23.33° C | 49% | 1015.4 hPa | 0 mm | - | - | - |
| 1778001557 | 23.33° C | 48% | 1015.7 hPa | 0 mm | - | - | - |
| 1778000956 | 23.33° C | 49% | 1016 hPa | 0 mm | - | - | - |
| 1778000357 | 23.33° C | 50% | 1016.1 hPa | 0 mm | - | - | - |
| 1777999756 | 23.33° C | 51% | 1016.3 hPa | 0 mm | - | - | - |
| 1777999156 | 22.78° C | 50% | 1016.5 hPa | 0 mm | - | - | - |
| 1777998557 | 22.78° C | 51% | 1016.6 hPa | 0 mm | - | - | - |
| 1777997956 | 22.78° C | 49% | 1016.6 hPa | 0 mm | - | - | - |
| 1777997356 | 22.78° C | 50% | 1016.4 hPa | 0 mm | - | - | - |
| 1777996756 | 22.78° C | 51% | 1016.6 hPa | 0 mm | - | - | - |
| 1777996156 | 22.22° C | 55% | 1016.4 hPa | 0 mm | - | - | - |
| 1777995557 | 21.67° C | 53% | 1016.5 hPa | 0 mm | - | - | - |
| 1777994957 | 21.67° C | 54% | 1016.6 hPa | 0 mm | - | - | - |
| 1777994357 | 21.67° C | 56% | 1016.4 hPa | 0 mm | - | - | - |
| 1777993757 | 21.67° C | 56% | 1016.5 hPa | 0 mm | - | - | - |
| 1777993157 | 21.67° C | 54% | 1016.5 hPa | 0 mm | - | - | - |
| 1777992557 | 21.67° C | 57% | 1016.6 hPa | 0 mm | - | - | - |
| 1777991957 | 21.67° C | 58% | 1016.5 hPa | 0 mm | - | - | - |
* Rain latest hour (hover to see other rain measurements)
** Current wind speed in m/s (hover to see current wind gust speed)